Theta_e
309 312 311 310 309 307 307 307 307 307 305 304 307 306 307 307 305 306 306 306 306 306 305 303 302 301 300 299 298 297 297 297 297 297 298 300 301 300 303 304 305 305 306 308
309 309 307 307 307 307 307 308 308 307 303 305 307 308 308 304 306 306 306 306 306 306 305 303 302 301 300 299 298 297 297 297 297 297 298 298 299 300 301 303 303 304 306 308
310 308 306 306 306 307 308 308 307 307 307 305 306 312 305 305 304 305 305 305 305 306 305 304 303 303 301 300 298 297 296 296 296 297 297 298 299 300 302 301 303 303 305 308
308 306 306 307 307 305 307 306 306 306 308 312 305 316 309 304 307 306 305 306 307 306 304 303 302 302 302 299 296 296 295 295 296 296 297 298 298 300 300 300 301 303 305 307
310 307 307 307 307 305 307 306 306 307 309 309 308 309 311 302 307 305 304 305 305 304 304 304 302 301 299 297 297 295 294 295 296 296 296 297 298 298 299 300 301 304 304 306
306 303 305 306 305 305 305 306 305 306 309 321 308 305 315 306 307 305 303 303 304 304 304 302 301 298 299 296 296 295 294 295 296 296 296 297 298 298 300 300 301 301 303 305
305 305 303 304 307 306 306 306 341 339 339 331 304 306 314 306 304 305 305 304 304 303 303 303 302 300 299 297 296 294 294 295 296 297 297 297 297 298 299 300 300 300 301 304
318 317 305 303 306 309 306 305 331 332 324 315 301 310 312 306 303 302 301 303 302 303 303 302 301 300 299 297 295 294 294 295 296 297 297 297 297 297 298 299 299 300 301 303
317 313 302 303 304 304 306 310 303 309 299 310 311 309 307 304 304 303 303 303 303 302 303 302 300 299 297 296 295 293 294 295 296 297 297 297 297 297 297 297 298 299 301 305
313 315 302 302 303 302 304 302 312 312 324 322 318 310 315 307 307 305 304 304 303 302 302 301 300 298 297 295 294 292 293 295 296 296 296 297 297 297 297 297 298 300 302 305
310 319 305 301 306 306 303 306 303 306 308 323 323 321 313 308 306 307 305 302 301 302 303 302 299 297 296 294 293 292 294 295 297 296 296 297 297 297 297 298 299 301 305 307
307 311 310 310 300 300 302 304 306 322 317 306 309 318 306 306 305 302 303 302 302 301 301 300 298 297 295 294 293 292 293 295 296 296 296 296 295 296 297 298 300 303 306 307
305 314 315 315 307 300 304 304 302 303 307 311 326 325 307 305 306 305 304 305 303 302 301 299 297 297 296 294 293 292 293 295 296 296 296 295 295 295 297 298 302 303 305 307
304 311 321 323 321 310 307 306 302 309 318 315 313 322 317 313 309 309 308 308 308 304 302 300 298 297 296 294 293 292 293 295 296 295 296 295 294 295 296 299 301 304 306 308
304 313 307 302 301 304 308 307 304 305 311 323 322 310 314 315 311 309 309 307 305 304 301 299 298 297 295 294 292 291 293 296 296 295 296 295 296 296 297 299 302 304 309 309
301 311 303 307 299 301 306 304 305 304 303 304 306 308 308 308 308 306 306 306 306 307 303 299 298 295 293 292 292 291 292 296 295 295 296 296 296 297 298 298 300 304 307 309
303 306 313 321 298 307 315 306 306 305 305 307 309 313 310 310 309 309 310 308 307 305 303 301 299 294 293 293 293 291 293 295 295 295 295 296 296 297 298 299 300 301 305 307
305 309 315 313 309 321 317 307 306 308 307 305 306 308 309 310 308 307 307 306 305 303 299 299 298 296 294 293 293 291 295 296 295 295 295 296 297 297 298 298 299 300 301 302
303 310 314 320 319 318 313 306 307 307 315 309 306 308 310 306 305 309 302 303 302 300 298 298 297 296 294 293 292 291 294 296 295 295 296 297 298 298 298 298 299 299 300 301
302 307 314 310 322 321 318 311 305 309 319 311 308 311 308 305 312 312 301 299 299 297 296 295 294 293 293 292 291 291 293 296 296 296 297 297 297 299 299 300 300 299 300 300
307 309 311 315 320 319 312 304 305 321 320 306 308 308 305 308 309 302 299 299 297 296 295 294 293 294 293 292 291 291 292 295 297 297 296 297 297 297 298 299 299 300 300 301
310 312 313 314 317 319 303 303 316 314 304 305 305 305 305 304 300 300 299 298 297 296 293 293 293 292 292 292 291 291 292 295 296 296 296 296 296 297 297 297 297 298 299 299
313 313 316 314 316 311 305 311 308 306 305 303 305 303 304 302 301 300 299 298 297 296 294 292 292 291 291 292 292 291 293 294 295 295 295 294 295 295 295 295 296 296 296 296
303 302 311 313 310 308 305 304 304 303 304 301 301 301 301 301 301 300 299 297 296 294 293 291 290 289 289 291 291 292 293 294 295 295 294 292 292 293 295 295 295 295 295 295
309 304 308 310 304 306 306 306 304 301 299 297 297 299 301 300 300 300 299 296 295 293 292 292 291 290 290 291 292 292 293 293 294 295 295 294 292 291 290 290 291 292 291 292
304 306 311 314 307 312 312 307 301 302 302 300 299 297 296 299 299 297 298 295 293 292 292 292 292 292 291 291 291 292 293 293 293 293 293 294 293 292 292 291 291 291 291 290
Wind_Speed
2 4 5 3 2 2 1 2 4 4 2 6 9 17 18 13 8 8 9 9 8 6 3 2 1 1 2 3 3 3 5 7 9 9 10 8 8 7 3 2 3 4 5 5
3 6 4 6 4 3 2 2 4 4 0 5 11 21 11 3 2 3 2 5 5 5 5 3 3 4 3 4 4 3 4 6 7 8 8 8 10 5 5 4 4 3 4 4
4 2 5 2 4 4 2 3 1 4 10 3 13 6 1 2 2 1 1 1 3 3 3 2 3 4 3 4 4 2 4 6 6 7 7 8 7 3 1 5 4 4 3 3
1 4 4 4 3 3 2 2 2 3 6 4 5 5 2 1 1 2 2 3 3 4 4 4 4 4 3 3 3 2 3 4 5 6 6 6 6 3 4 5 6 4 2 4
3 7 5 5 2 2 2 1 1 0 1 3 2 3 1 1 4 4 3 2 1 3 5 5 5 4 2 3 2 1 2 3 4 6 5 4 5 5 4 6 8 5 4 1
3 1 0 1 3 3 7 2 1 1 0 2 2 2 2 3 4 4 4 3 3 3 3 3 2 2 2 3 2 1 2 2 4 5 4 5 5 5 4 3 5 6 6 2
1 3 2 2 3 3 2 1 2 2 1 2 2 3 8 3 5 4 5 5 4 3 4 4 5 5 5 3 2 1 1 2 3 4 5 4 5 5 5 4 3 6 7 5
7 4 8 4 2 2 5 2 2 3 2 3 2 5 1 1 2 4 4 3 4 6 5 5 5 5 4 4 3 1 1 2 3 4 5 6 6 4 4 3 3 4 7 8
6 2 1 2 1 2 4 4 2 6 1 2 2 5 8 6 10 9 8 6 7 6 6 6 6 5 4 4 3 2 1 1 2 4 5 6 5 6 6 5 4 5 6 8
6 5 1 2 0 3 2 4 3 0 2 3 3 5 5 3 10 6 6 6 5 5 6 6 6 6 5 4 3 3 2 2 3 4 5 6 5 6 6 6 5 5 6 8
4 3 2 1 8 8 4 3 1 1 1 2 3 3 4 4 6 6 5 4 4 5 5 6 6 7 6 5 4 4 3 3 3 5 4 6 5 5 5 7 8 8 8 9
6 5 5 1 1 2 2 3 6 3 4 0 2 6 3 6 5 4 6 5 4 4 4 6 8 8 8 7 5 4 4 4 2 5 5 5 6 4 4 6 7 8 9 10
8 3 5 1 1 1 6 6 4 4 2 7 4 5 2 4 6 8 9 7 5 5 5 6 8 10 10 8 6 5 5 5 3 3 4 4 5 5 5 6 8 8 8 12
4 2 6 10 5 7 7 9 13 5 4 6 8 8 6 7 6 4 6 8 7 4 4 7 8 10 11 9 8 6 6 6 5 2 4 5 5 4 4 6 6 8 11 14
2 5 3 2 3 1 4 13 17 11 6 7 3 10 10 7 9 7 5 6 4 6 5 7 7 7 12 11 10 7 7 8 5 3 5 6 6 5 5 6 9 11 15 18
1 1 2 1 3 3 3 4 13 7 2 8 9 14 13 15 7 5 9 7 8 7 7 6 6 9 13 18 15 11 10 9 6 5 6 6 7 7 7 8 11 15 18 20
7 6 4 4 1 2 8 10 15 7 6 7 8 14 5 6 6 7 10 7 8 8 7 6 9 12 17 20 19 16 13 11 9 7 8 8 7 8 9 11 13 17 19 20
6 5 2 3 3 10 1 1 15 12 5 16 9 10 8 8 6 11 11 12 10 8 6 6 8 13 18 20 21 17 16 13 11 9 8 10 9 8 8 12 15 17 18 20
4 4 4 5 6 6 2 5 10 11 16 19 20 21 11 2 4 9 3 7 5 5 6 6 10 17 19 21 22 19 18 15 12 12 11 10 11 11 9 12 14 15 18 19
4 3 4 4 6 11 4 9 9 5 7 10 19 13 8 6 3 2 7 4 2 4 5 8 14 18 21 21 24 21 19 18 15 14 14 12 12 12 11 9 10 12 13 15
6 5 14 9 10 5 4 7 6 9 6 6 11 7 9 7 1 4 2 3 2 1 5 10 15 20 21 27 27 23 22 20 18 16 14 13 12 12 12 11 11 10 10 10
12 12 8 5 9 21 6 8 11 6 1 5 6 9 9 5 3 2 2 2 4 5 6 11 14 17 24 29 29 25 24 20 19 17 15 14 12 11 10 10 11 11 10 9
10 9 12 13 6 4 23 12 17 5 6 6 8 6 9 8 5 5 3 4 4 9 7 12 15 18 24 30 30 28 25 23 22 19 17 15 13 11 10 9 9 8 7 6
6 2 4 4 6 7 16 4 4 6 6 7 6 9 9 8 7 6 5 4 4 8 9 14 19 19 20 25 26 22 22 23 23 22 20 17 15 13 11 10 8 6 6 6
6 12 6 7 1 4 3 12 6 5 3 6 6 8 12 8 8 6 6 6 5 9 10 15 19 19 24 27 25 21 21 24 24 22 21 20 17 16 14 11 10 9 7 6
6 7 12 12 10 6 10 17 11 11 11 10 10 6 5 8 9 6 6 7 10 11 13 13 14 16 18 25 25 24 21 24 24 24 22 20 18 17 15 13 11 10 9 7
Wind_Direction
43 222 220 179 186 300 160 212 274 285 32 304 271 284 293 308 291 270 256 237 221 227 162 152 136 199 188 214 236 274 302 324 332 330 334 327 325 326 308 309 327 289 262 248
163 229 101 101 126 211 214 266 285 278 332 306 309 300 308 302 320 324 48 152 175 171 165 178 196 219 223 242 248 280 315 330 335 331 323 312 316 313 317 341 339 306 273 244
214 108 128 158 165 209 206 253 336 291 318 234 308 259 227 173 274 314 137 107 154 176 184 208 204 238 235 248 250 279 322 325 334 326 324 324 310 298 334 347 344 321 288 257
204 133 148 180 211 231 241 98 109 320 332 308 8 298 177 333 103 139 117 197 211 193 209 236 231 245 249 234 216 274 320 319 328 329 329 337 320 333 341 328 319 335 301 252
156 159 163 204 174 200 91 92 50 326 279 309 165 253 178 232 175 173 139 129 158 190 215 225 227 244 195 169 189 274 312 317 331 338 332 337 327 315 338 341 338 331 312 225
84 55 31 64 97 69 132 124 132 121 123 244 115 315 235 190 175 169 170 185 215 198 221 239 240 231 197 175 186 275 311 329 349 339 327 324 312 325 329 4 347 331 325 334
123 163 134 221 139 107 157 189 302 313 234 260 124 254 270 203 208 194 172 185 217 216 228 235 239 236 238 207 196 240 327 353 355 342 320 312 316 314 323 339 343 333 323 327
159 231 180 167 277 173 171 222 187 242 266 308 148 239 230 238 262 232 224 218 240 236 216 231 239 228 234 203 191 197 26 14 355 344 325 318 322 328 303 320 330 313 317 319
144 131 52 45 5 318 165 198 70 105 78 273 260 261 261 259 252 240 228 211 230 230 217 219 200 209 202 200 196 170 108 27 13 354 336 324 331 339 317 336 343 329 333 331
192 104 4 68 180 56 286 134 118 44 197 253 271 276 265 227 216 206 209 206 207 218 215 209 197 197 193 201 182 162 122 63 18 1 339 322 338 334 324 342 352 350 345 348
135 104 129 200 202 178 155 189 147 97 288 219 288 253 202 234 210 195 177 191 195 219 221 216 196 189 187 198 184 173 136 93 43 345 346 328 349 346 333 354 9 4 15 8
180 107 140 192 29 337 318 210 186 192 188 46 326 275 158 253 261 258 246 245 236 235 233 213 191 185 187 198 194 180 141 117 77 337 352 344 348 356 347 5 22 19 18 32
183 174 115 77 164 288 226 191 186 102 102 196 163 254 111 257 246 238 247 251 242 259 238 207 188 193 190 194 196 176 149 122 96 -0 357 352 -0 355 3 31 21 39 50 56
105 125 177 204 171 131 186 186 184 173 158 171 224 262 256 265 255 245 250 257 269 262 237 219 202 196 188 188 189 175 154 134 120 48 20 25 22 14 7 43 56 62 67 72
168 217 133 355 337 266 184 172 177 195 189 187 228 220 255 237 250 250 263 283 279 276 244 227 206 186 184 180 184 178 159 146 143 91 61 48 40 36 38 52 66 78 71 73
217 175 129 165 340 6 268 187 191 206 256 287 275 275 243 264 254 263 256 261 269 262 248 229 206 178 183 185 183 177 166 152 139 112 85 67 59 60 54 55 85 89 83 80
177 150 156 217 4 9 265 198 188 187 207 193 209 242 180 236 236 257 270 269 265 272 268 232 209 186 180 183 181 176 164 155 143 127 107 97 79 72 56 63 79 91 95 98
168 166 146 134 166 228 275 224 189 195 215 212 271 258 231 250 267 276 269 267 276 270 248 213 194 176 178 178 178 169 164 158 150 139 126 115 108 98 79 82 83 86 91 93
215 168 168 186 202 303 183 189 164 181 246 209 222 249 259 221 292 268 238 207 219 271 269 198 180 167 162 167 172 167 165 162 160 153 146 135 125 119 105 91 86 87 93 93
186 275 232 154 217 231 183 187 164 153 258 191 198 227 184 150 207 159 182 191 229 280 228 180 155 156 156 164 168 167 169 168 172 167 157 149 140 134 124 108 97 94 90 91
172 207 221 213 239 271 241 149 159 168 243 164 185 176 163 183 180 98 191 234 137 132 190 163 157 158 164 167 171 172 175 179 172 168 164 158 151 145 141 137 133 121 112 105
176 179 198 207 223 244 139 116 182 196 327 149 166 166 183 184 152 132 195 165 119 145 167 169 159 163 168 174 174 176 184 177 172 171 169 165 160 155 150 146 141 140 141 140
206 200 197 197 224 113 171 181 211 171 155 188 162 165 178 167 182 157 168 186 155 154 177 175 168 170 177 179 182 179 183 176 174 173 174 173 170 167 163 158 153 148 149 144
229 211 209 130 191 180 192 194 188 191 189 161 161 162 169 164 163 159 158 158 157 152 178 175 166 168 181 189 189 190 180 180 178 175 175 177 179 178 179 178 179 173 168 163
181 148 178 251 345 59 230 215 207 180 169 151 145 171 174 157 172 164 164 157 168 163 174 189 181 180 183 186 190 188 186 184 184 183 180 181 183 184 183 185 186 186 187 187
184 178 200 224 162 180 196 211 174 176 194 182 161 156 195 165 164 154 169 161 168 165 163 187 186 184 190 185 188 189 189 191 190 188 188 189 187 188 190 191 192 194 193 189